P/2017 D4 ( PanSTARRS )

Japanese version
Home page
Updated on April 1, 2017

---------------------------------------------------------------------

* Profile

Discovery Date February 25, 2017
Magnitude 20.6 mag
Discoverer Pan-STARRS 1 telescope (Haleakala)

* Pictures

* Orbital Elements

Epoch 2016 Sept. 9.0 TT = JDT 2457640.5
T 2016 Sept. 6.51127 TT                                 MPCW
q   2.7538199            (2000.0)            P               Q
n   0.04875142     Peri.  209.74117     -0.42804710     -0.88583617
a   7.4212642      Node   266.11321     +0.86056546     -0.33898397
e   0.6289285      Incl.   10.34027     +0.27604851     -0.31683457
P  20.22
From 52 observations 2017 Jan. 20-Mar. 3, mean residual 0".4.

* Magnitudes Graph

        m1 = 13.0 + 5 log d + 10.0 log r

---------------------------------------------------------------------

The orbital elements are published on M.P.E.C. 2017-E59.
The magnitudes graphs are made with Comet for Windows.

---------------------------------------------------------------------

Copyright(C) Seiichi Yoshida (comet@aerith.net). All rights reserved.